Location: Elstree
(51.6403°N, 0.2969°W)
Time: 06:48:57
(UTC+00:00)

Envisat - Pass Details

Date: 09 December 2022
Orbit: 763 x 765 km, 98.2° (Epoch: 04 February)

Event Time Altitude Azimuth Distance (km) Brightness Sun altitude
Rises 16:55:39 0° 221° (SW) 3,223 7.6 -9.3°
Reaches altitude 10° 16:59:22 10° 250° (WSW) 2,305 7.1 -9.8°
Maximum altitude 17:01:35 13° 276° (W) 2,121 6.3 -10.1°
Drops below altitude 10° 17:03:48 10° 302° (WNW) 2,313 6.0 -10.4°
Sets 17:07:34 0° 330° (NNW) 3,246 6.3 -11.0°
